UPSAT

Last updated on April 5, 2018, 12:15 a.m. UTC

1 42716U 98067LX  18094.80346316  .00028768  00000-0  23725-3 0  9996
2 42716  51.6365   6.9075 0001217   7.2691 352.8324 15.70101029 50223

Satellite is not in orbit.